N6OIM Weather Reports


Display with metric or nautical units.
time (UTC)temp
F
wind
direction
speed
MPH
gust
MPH
rain 1hr
in
rain 24hr
in
rain mn
in
humidity
%
barometer
mb
20260502230834 75 246 0.0 0.0 0.00 0.00 0.00 50 1008.7
20260502230322 75 246 0.0 0.0 0.00 0.00 0.00 50 1008.7
20260502225830 75 273 0.0 0.0 0.00 0.00 0.00 50 1008.8
20260502225321 75 198 0.0 0.0 0.00 0.00 0.00 51 1008.9
20260502224829 75 285 0.0 0.0 0.00 0.00 0.00 50 1009.0
20260502224317 75 223 0.0 0.0 0.00 0.00 0.00 51 1009.1
20260502223825 75 138 0.0 0.0 0.00 0.00 0.00 51 1009.1
20260502223332 75 273 0.0 0.0 0.00 0.00 0.00 53 1009.1
20260502222821 74 300 0.0 0.0 0.00 0.00 0.00 52 1009.3
20260502222331 74 256 0.0 0.0 0.00 0.00 0.00 54 1009.4
20260502221820 74 235 0.0 0.0 0.00 0.00 0.00 53 1009.4
20260502221330 74 229 0.0 0.0 0.00 0.00 0.00 54 1009.5
20260502220824 74 232 0.0 0.0 0.00 0.00 0.00 52 1009.6
20260502220332 74 268 0.0 0.0 0.00 0.00 0.00 53 1009.7
20260502215820 74 265 0.0 0.0 0.00 0.00 0.00 53 1009.9
20260502215329 74 203 0.0 0.0 0.00 0.00 0.00 53 1009.9
20260502214819 74 202 0.0 0.0 0.00 0.00 0.00 53 1010.0
20260502214328 74 234 0.0 0.0 0.00 0.00 0.00 52 1010.0
20260502213818 74 273 0.0 0.0 0.00 0.00 0.00 52 1010.0
20260502213326 74 222 0.0 0.0 0.00 0.00 0.00 52 1010.0
20260502212834 74 233 0.0 0.0 0.00 0.00 0.00 53 1010.0
20260502212327 74 207 0.0 0.0 0.00 0.00 0.00 54 1010.1
20260502211836 73 227 0.0 0.0 0.00 0.00 0.00 54 1010.2
20260502211324 73 257 0.0 0.0 0.00 0.00 0.00 54 1010.2
20260502210833 73 230 0.0 0.0 0.00 0.00 0.00 57 1010.3
20260502210320 72 219 0.0 0.0 0.00 0.00 0.00 57 1010.5
20260502205830 72 244 0.0 0.0 0.00 0.00 0.00 57 1010.4
20260502205317 71 196 0.0 0.0 0.00 0.00 0.00 59 1010.5
20260502204825 71 269 0.0 0.0 0.00 0.00 0.00 59 1010.6
20260502204332 71 143 0.0 0.0 0.00 0.00 0.00 60 1010.6
20260502203825 70 179 0.0 0.0 0.00 0.00 0.00 62 1010.6
20260502203335 70 117 0.0 0.0 0.00 0.00 0.00 62 1010.6
20260502202823 69 191 0.0 0.0 0.00 0.00 0.00 61 1010.6
20260502202332 69 132 0.0 0.0 0.00 0.00 0.00 62 1010.6
20260502201822 69 215 0.0 0.0 0.00 0.00 0.00 62 1010.8
20260502201330 68 223 0.0 0.0 0.00 0.00 0.00 64 1010.8
20260502200820 68 157 0.0 0.0 0.00 0.00 0.00 65 1010.8
20260502200328 67 156 0.0 0.0 0.00 0.00 0.00 67 1010.8
20260502195821 67 178 0.0 0.0 0.00 0.00 0.00 65 1010.8
20260502195336 67 171 0.0 0.0 0.00 0.00 0.00 65 1010.9
20260502194336 66 157 0.0 0.0 0.00 0.00 0.00 67 1011.0
20260502193824 66 156 0.0 0.0 0.00 0.00 0.00 66 1011.0
20260502193315 66 182 0.0 0.0 0.00 0.00 0.00 67 1011.0
20260502192825 66 172 0.0 0.0 0.00 0.00 0.00 68 1011.0
20260502192332 65 171 0.0 0.0 0.00 0.00 0.00 68 1011.1
20260502191824 65 172 0.0 0.0 0.00 0.00 0.00 68 1011.2
20260502191332 65 190 0.0 0.0 0.00 0.00 0.00 69 1011.3
20260502190824 65 161 0.0 0.0 0.00 0.00 0.00 68 1011.3
20260502190332 64 182 0.0 0.0 0.00 0.00 0.00 68 1011.4
20260502185822 64 215 0.0 0.0 0.00 0.00 0.00 68 1011.4
20260502185331 64 249 0.0 0.0 0.00 0.00 0.00 69 1011.4
20260502184820 64 271 0.0 0.0 0.00 0.00 0.00 68 1011.3
20260502184329 64 205 0.0 0.0 0.00 0.00 0.00 69 1011.3
20260502183821 64 169 0.0 0.0 0.00 0.00 0.00 69 1011.2
20260502183328 64 173 0.0 0.0 0.00 0.00 0.00 70 1011.3
20260502182820 64 172 0.0 0.0 0.00 0.00 0.00 69 1011.2
20260502182330 64 165 0.0 0.0 0.00 0.00 0.00 69 1011.2
20260502181820 64 153 0.0 0.0 0.00 0.00 0.00 69 1011.2
20260502181328 64 153 0.0 0.0 0.00 0.00 0.00 70 1011.2
20260502180816 64 153 0.0 0.0 0.00 0.00 0.00 70 1011.2
20260502180325 63 199 0.0 0.0 0.00 0.00 0.00 71 1011.4
20260502170334 62 198 0.0 0.0 0.00 0.00 0.00 76 1011.1
20260502164333 61 244 0.0 0.0 0.00 0.00 0.00 76 1011.1
20260502163822 61 261 0.0 0.0 0.00 0.00 0.00 76 1011.1
20260502163329 61 153 0.0 0.0 0.00 0.00 0.00 76 1011.1
20260502162821 60 259 0.0 0.0 0.00 0.00 0.00 77 1011.0
20260502162329 60 142 0.0 0.0 0.00 0.00 0.00 77 1010.9
20260502161819 60 143 0.0 0.0 0.00 0.00 0.00 77 1010.9
20260502161332 60 142 0.0 0.0 0.00 0.00 0.00 78 1011.0
20260502160824 60 140 0.0 0.0 0.00 0.00 0.00 78 1011.0
20260502160331 59 140 0.0 0.0 0.00 0.00 0.00 79 1011.0
20260502152325 57 115 0.0 0.0 0.00 0.00 0.00 82 1010.7
20260502151814 57 112 0.0 0.0 0.00 0.00 0.00 82 1010.7
20260502151326 57 111 0.0 0.0 0.00 0.00 0.00 82 1010.6
20260502150834 56 115 0.0 0.0 0.00 0.00 0.00 83 1010.7
20260502150321 56 114 0.0 0.0 0.00 0.00 0.00 83 1010.7
20260502130328 55 113 0.0 0.0 0.00 0.00 0.00 82 1009.8
20260502123326 55 168 0.0 0.0 0.00 0.00 0.00 81 1009.4
20260502122834 55 168 0.0 0.0 0.00 0.00 0.00 80 1009.4
20260502122321 55 168 0.0 0.0 0.00 0.00 0.00 80 1009.5
20260502121831 55 168 0.0 0.0 0.00 0.00 0.00 80 1009.5
20260502121323 56 168 0.0 0.0 0.00 0.00 0.00 80 1009.5
20260502120836 56 168 0.0 0.0 0.00 0.00 0.00 80 1009.4
20260502120325 56 168 0.0 0.0 0.00 0.00 0.00 80 1009.3
20260502115836 56 168 0.0 0.0 0.00 0.00 0.00 79 1009.4
20260502115324 56 168 0.0 0.0 0.00 0.00 0.00 79 1009.5
20260502114817 56 168 0.0 0.0 0.00 0.00 0.00 79 1009.7
20260502114325 56 168 0.0 0.0 0.00 0.00 0.00 78 1009.8
20260502113814 56 168 0.0 0.0 0.00 0.00 0.00 79 1009.8
20260502113324 56 168 0.0 0.0 0.00 0.00 0.00 78 1009.8
20260502112833 56 168 0.0 0.0 0.00 0.00 0.00 78 1009.7
20260502112321 57 168 0.0 0.0 0.00 0.00 0.00 78 1009.7
20260502111831 57 168 0.0 0.0 0.00 0.00 0.00 78 1009.7
20260502111320 57 168 0.0 0.0 0.00 0.00 0.00 78 1009.7
20260502110830 57 168 0.0 0.0 0.00 0.00 0.00 78 1009.7
20260502110322 57 168 0.0 0.0 0.00 0.00 0.00 78 1009.8
20260502105830 57 168 0.0 0.0 0.00 0.00 0.00 78 1009.7
20260502105318 57 168 0.0 0.0 0.00 0.00 0.00 78 1009.8
20260502104828 57 168 0.0 0.0 0.00 0.00 0.00 78 1009.9
20260502104336 57 168 0.0 0.0 0.00 0.00 0.00 77 1009.8
20260502103826 58 168 0.0 0.0 0.00 0.00 0.00 77 1009.8
20260502103335 58 168 0.0 0.0 0.00 0.00 0.00 77 1009.8
20260502102823 58 168 0.0 0.0 0.00 0.00 0.00 77 1009.8
20260502101826 58 168 0.0 0.0 0.00 0.00 0.00 77 1009.7
20260502101314 58 168 0.0 0.0 0.00 0.00 0.00 77 1009.7
20260502100827 58 168 0.0 0.0 0.00 0.00 0.00 77 1009.8
20260502100316 58 168 0.0 0.0 0.00 0.00 0.00 77 1009.7
20260502091319 59 168 0.0 0.0 0.00 0.00 0.00 75 1009.8
20260502090827 59 168 0.0 0.0 0.00 0.00 0.00 75 1009.7
20260502090334 60 168 0.0 0.0 0.00 0.00 0.00 75 1009.7
20260502071327 62 150 0.0 0.0 0.00 0.00 0.00 73 1010.2
20260502070819 62 149 0.0 0.0 0.00 0.00 0.00 73 1010.2
20260502070326 63 144 0.0 0.0 0.00 0.00 0.00 73 1010.2
20260502065815 63 139 0.0 0.0 0.00 0.00 0.00 73 1010.2
20260502065326 63 140 0.0 0.0 0.00 0.00 0.00 73 1010.2
20260502064815 64 141 0.0 0.0 0.00 0.00 0.00 73 1010.2
20260502064329 64 140 0.0 0.0 0.00 0.00 0.00 73 1010.1
20260502063818 64 133 0.0 0.0 0.00 0.00 0.00 73 1010.1
20260502063327 64 129 0.0 0.0 0.00 0.00 0.00 73 1010.1
20260502062817 65 126 0.0 0.0 0.00 0.00 0.00 72 1010.1
20260502062325 65 123 0.0 0.0 0.00 0.00 0.00 72 1010.1
20260502061833 65 122 0.0 0.0 0.00 0.00 0.00 72 1010.0
20260502061320 66 152 0.0 0.0 0.00 0.00 0.00 71 1010.0
20260502060829 66 189 0.0 0.0 0.00 0.00 0.00 71 1010.0
20260502060318 66 189 0.0 0.0 0.00 0.00 0.00 71 1010.2
20260502055832 66 188 0.0 0.0 0.00 0.00 0.00 70 1010.1
20260502055320 67 189 0.0 0.0 0.00 0.00 0.00 70 1010.1
20260502054830 67 188 0.0 0.0 0.00 0.00 0.00 69 1010.1
20260502054317 67 189 0.0 0.0 0.00 0.00 0.00 69 1010.0
20260502053827 67 189 0.0 0.0 0.00 0.00 0.00 69 1010.1
20260502053316 68 189 0.0 0.0 0.00 0.00 0.00 68 1010.1
20260502052825 68 189 0.0 0.0 0.00 0.00 0.00 68 1010.1
20260502052332 68 188 0.0 0.0 0.00 0.00 0.00 68 1010.0
20260502051822 69 189 0.0 0.0 0.00 0.00 0.00 67 1010.0
20260502051335 69 189 0.0 0.0 0.00 0.00 0.00 66 1010.0
20260502050823 69 188 0.0 0.0 0.00 0.00 0.00 66 1010.1
20260502050332 69 189 0.0 0.0 0.00 0.00 0.00 66 1010.0
20260502045819 70 189 0.0 0.0 0.00 0.00 0.00 65 1010.0
20260502045330 70 188 0.0 0.0 0.00 0.00 0.00 64 1009.9
20260502044819 70 189 0.0 0.0 0.00 0.00 0.00 64 1009.9
20260502044327 71 189 0.0 0.0 0.00 0.00 0.00 63 1009.8
20260502043836 71 189 0.0 0.0 0.00 0.00 0.00 63 1009.8
20260502043325 71 189 0.0 0.0 0.00 0.00 0.00 63 1009.7
20260502042818 72 189 0.0 0.0 0.00 0.00 0.00 62 1009.6
20260502042330 72 197 0.0 0.0 0.00 0.00 0.00 61 1009.5
20260502041819 72 196 0.0 0.0 0.00 0.00 0.00 60 1009.6
20260502041328 73 196 0.0 0.0 0.00 0.00 0.00 60 1009.5
20260502040818 73 197 0.0 0.0 0.00 0.00 0.00 58 1009.4
20260502040327 73 197 0.0 0.0 0.00 0.00 0.00 57 1009.3
20260502035818 74 196 0.0 0.0 0.00 0.00 0.00 56 1009.3
20260502035326 74 197 0.0 0.0 0.00 0.00 0.00 56 1009.3
20260502034819 74 197 0.0 0.0 0.00 0.00 0.00 55 1009.2
20260502034327 74 197 0.0 0.0 0.00 0.00 0.00 53 1009.1
20260502033819 75 196 0.0 0.0 0.00 0.00 0.00 53 1009.0
20260502033327 75 197 0.0 0.0 0.00 0.00 0.00 52 1008.9
20260502032816 75 197 0.0 0.0 0.00 0.00 0.00 52 1009.0
20260502032324 76 197 0.0 0.0 0.00 0.00 0.00 52 1008.8
20260502031832 76 196 0.0 0.0 0.00 0.00 0.00 51 1008.7
20260502031320 76 197 0.0 0.0 0.00 0.00 0.00 51 1008.7
20260502030829 77 197 0.0 0.0 0.00 0.00 0.00 52 1008.6
20260502030320 77 197 0.0 0.0 0.00 0.00 0.00 51 1008.7
20260502025829 78 196 0.0 0.0 0.00 0.00 0.00 51 1008.7
20260502025317 78 197 0.0 0.0 0.00 0.00 0.00 51 1008.6
20260502024828 78 188 0.0 0.0 0.00 0.00 0.00 51 1008.4
20260502024336 79 189 0.0 0.0 0.00 0.00 0.00 51 1008.5
20260502023825 79 189 0.0 0.0 0.00 0.00 0.00 51 1008.5
20260502023333 80 188 0.0 0.0 0.00 0.00 0.00 50 1008.4
20260502022823 80 189 0.0 0.0 0.00 0.00 0.00 50 1008.4
20260502022330 80 185 0.0 0.0 0.00 0.00 0.00 50 1008.3
20260502021825 81 185 0.0 0.0 0.00 0.00 0.00 49 1008.2
20260502021336 81 184 0.0 0.0 0.00 0.00 0.00 48 1008.3
20260502020823 82 185 0.0 0.0 0.00 0.00 0.00 48 1008.3
20260502020331 82 185 0.0 0.0 0.00 0.00 0.00 48 1008.2
20260502015823 82 186 0.0 0.0 0.00 0.00 0.00 47 1008.2
20260502015331 83 186 0.0 0.0 0.00 0.00 0.00 47 1008.3
20260502014824 83 186 0.0 0.0 0.00 0.00 0.00 47 1008.4
20260502014336 83 185 0.0 0.0 0.00 0.00 0.00 46 1008.4
20260502013826 84 184 0.0 0.0 0.00 0.00 0.00 46 1008.4
20260502013320 84 185 0.0 0.0 0.00 0.00 0.00 45 1008.5
20260502012829 84 192 0.0 0.0 0.00 0.00 0.00 45 1008.5
20260502012336 85 216 0.0 0.0 0.00 0.00 0.00 45 1008.5
20260502011825 85 205 0.0 0.0 0.00 0.00 0.00 45 1008.5
20260502011333 85 209 0.0 0.0 0.00 0.00 0.00 45 1008.6
20260502010822 85 208 0.0 0.0 0.00 0.00 0.00 44 1008.6
20260502010329 85 226 0.0 0.0 0.00 0.00 0.00 45 1008.7
20260502005820 85 215 0.0 0.0 0.00 0.00 0.00 43 1008.7
20260502005329 85 148 0.0 0.0 0.00 0.00 0.00 44 1008.6
20260502004820 85 141 0.0 0.0 0.00 0.00 0.00 45 1008.6
20260502004329 85 106 0.0 0.0 0.00 0.00 0.00 44 1008.7
20260502003819 85 211 0.0 0.0 0.00 0.00 0.00 44 1008.7
20260502003330 85 210 0.0 0.0 0.00 0.00 0.00 45 1008.7
20260502002822 85 210 0.0 0.0 0.00 0.00 0.00 44 1008.7
20260502002330 85 209 0.0 0.0 0.00 0.00 0.00 43 1008.7
20260502001819 85 203 0.0 0.0 0.00 0.00 0.00 43 1008.7
20260502001328 85 205 0.0 0.0 0.00 0.00 0.00 42 1008.6
20260502000824 86 134 0.0 0.0 0.00 0.00 0.00 41 1008.6
20260502000333 86 124 0.0 0.0 0.00 0.00 0.00 42 1008.7
20260501235822 86 111 0.0 0.0 0.00 0.00 0.00 41 1008.8
20260501235330 86 179 0.0 0.0 0.00 0.00 0.00 41 1008.8
20260501234820 86 179 0.0 0.0 0.00 0.00 0.00 40 1008.8
20260501234328 86 181 0.0 0.0 0.00 0.00 0.00 42 1008.9
20260501233836 86 180 0.0 0.0 0.00 0.00 0.00 41 1009.0
20260501233323 86 180 0.0 0.0 0.00 0.00 0.00 40 1008.9
20260501232831 86 181 0.0 0.0 0.00 0.00 0.00 42 1009.0
20260501232324 86 180 0.0 0.0 0.00 0.00 0.00 41 1009.2
20260501231833 85 181 0.0 0.0 0.00 0.00 0.00 41 1009.3
20260501231321 85 141 0.0 0.0 0.00 0.00 0.00 41 1009.4